Location: Unspecified
(22.6800°N, 112.2000°E)
Time: 06:17:10
(UTC+08:00)

ISS - Visible Passes

Search period start: 26 August 2019 00:00
Search period end: 05 September 2019 00:00
Orbit: 410 x 421 km, 51.6° (Epoch: 26 August)

Date Brightness Start Highest point End Pass type
(mag) Time Alt. Az. Time Alt. Az. Time Alt. Az.
26 Aug -0.3 03:51:21 11° E 03:51:21 11° E 03:51:34 10° ENE visible
26 Aug -2.0 05:24:16 15° WNW 05:25:42 19° NW 05:28:10 10° N visible
27 Aug -2.3 04:37:51 30° N 04:37:51 30° N 04:39:59 10° NNE visible
28 Aug -0.3 03:51:21 10° NE 03:51:21 10° NE 03:51:22 10° NE visible
